This is the latest recevied weather packets stored in our database for station/object KB1JDX. If no packets are shown the sender has not sent any weather packets the latest 10 day(s).
| Time | Temp. | Humidity | Pressure | Rain* | Wind** | Luminosity | Snow |
|---|---|---|---|---|---|---|---|
| 1778149167 | 9.44° C | 100% | 1007.6 hPa | 1.27 mm | 0 m/s | - | - |
| 1778148038 | 10° C | 100% | 1007.6 hPa | 0.76 mm | 0 m/s | - | - |
| 1778146837 | 10° C | 100% | 1007.7 hPa | 0.76 mm | 0 m/s | - | - |
| 1778145636 | 10° C | 100% | 1007.5 hPa | 0.76 mm | 0 m/s | - | - |
| 1778145567 | 10° C | 100% | 1007.6 hPa | 0.76 mm | 0 m/s | - | - |
| 1778144436 | 10° C | 100% | 1007.5 hPa | 2.29 mm | 0 m/s | - | - |
| 1778143236 | 10° C | 100% | 1007.2 hPa | 2.29 mm | 0 m/s | - | - |
| 1778142036 | 10.56° C | 1% | 1007.3 hPa | 2.29 mm | 0 m/s | - | - |
| 1778141967 | 10.56° C | 1% | 1007.4 hPa | 2.29 mm | 0 m/s | - | - |
| 1778140836 | 11.11° C | 1% | 1007.4 hPa | 0 mm | 0 m/s | - | - |
| 1778139636 | 11.11° C | 6% | 1007.7 hPa | 0 mm | 0 m/s | - | - |
| 1778138437 | 11.11° C | 15% | 1007.9 hPa | 0 mm | 0 m/s | - | - |
| 1778138367 | 11.67° C | 15% | 1007.7 hPa | 0 mm | 0 m/s | - | - |
| 1778137236 | 11.67° C | 17% | 1006.9 hPa | 0 mm | 0 m/s | - | - |
| 1778134837 | 12.22° C | 100% | 1006.7 hPa | 0 mm | 0 m/s | - | - |
| 1778134767 | 12.22° C | 100% | 1006.8 hPa | 0 mm | 0 m/s | - | - |
| 1778133636 | 12.78° C | 100% | 1006.5 hPa | 0 mm | 0 m/s | - | - |
| 1778132436 | 13.33° C | 100% | 1006.7 hPa | 0 mm | 0 m/s | - | - |
| 1778131236 | 13.33° C | 100% | 1007.1 hPa | 0 mm | 0 m/s | - | - |
| 1778131167 | 13.33° C | 100% | 1007.1 hPa | 0 mm | 0 m/s | - | - |
| 1778130036 | 13.33° C | 100% | 1007.2 hPa | 0 mm | 0 m/s | - | - |
| 1778128836 | 13.89° C | 100% | 1007 hPa | 0 mm | 0 m/s | - | - |
| 1778127636 | 13.89° C | 100% | 1007.1 hPa | 0 mm | 0 m/s | - | - |
| 1778127567 | 13.89° C | 100% | 1007.1 hPa | 0 mm | 0 m/s | - | - |
| 1778126436 | 14.44° C | 100% | 1007.1 hPa | 0 mm | 0 m/s | - | - |
* Rain latest hour (hover to see other rain measurements)
** Current wind speed in m/s (hover to see current wind gust speed)